[[{"header":{"parameterUnit":"m.s-1","parameterCategory":1,"la1":30.2991,"la2":30.254,"lo1":-89.0895,"lo2":-89.0444,"dy":0.0017,"dx":0.0017,"nx":28,"ny":28,"refTime":"2023-04-23T21:00:00:Z","depth":0,"parameterNumber":2,"parameterNumberName":"U-component_of_WINDS"},"data":[0,0,0,0,0,0,0,0,0,0,0,0,0,0,0,0,0,0,0,0,0,0,0,0,0,0,0,0,0,0,0,0,0,0,0,0,0,0,0,0,0,0,0,0,0,0,0,0,0,0,0,0,0,0,0,0,0,0,-3.282,-3.282,0,-3.2781,-3.278,-3.278,-3.2668,-3.2665,-3.2663,-3.2661,-3.2624,-3.2625,-3.2626,0,0,0,0,0,0,0,0,0,0,0,0,0,-3.2805,-3.2805,-3.282,-3.282,-3.2819,-3.2781,-3.278,-3.278,-3.2668,-3.2665,-3.2662,-3.266,-3.2623,-3.2625,-3.2626,0,0,0,0,0,0,0,0,0,0,0,0,0,-3.2793,-3.2806,-3.2821,-3.2759,-3.2753,-3.2781,-3.278,-3.278,-3.2669,-3.2665,-3.2662,-3.2658,-3.2623,-3.2625,-3.2627,-3.2712,0,0,-3.2632,-3.2633,0,0,0,0,0,0,0,0,-3.2794,-3.2794,-3.2769,-3.2763,-3.2757,-3.2725,-3.2761,-3.2757,-3.267,-3.2701,-3.2661,-3.2656,-3.2661,-3.2659,-3.266,-3.271,-3.2708,-3.2633,-3.2634,-3.2635,-3.2635,0,0,0,0,0,0,0,-3.2795,-3.2795,-3.2805,-3.2768,-3.2761,-3.2735,-3.273,-3.276,-3.2702,-3.2698,-3.269,-3.2687,-3.2657,-3.2658,-3.2658,-3.2708,-3.2633,-3.2634,-3.2635,-3.2636,-3.2829,-3.2833,0,0,0,0,0,0,-3.2804,-3.2796,-3.2806,-3.2804,-3.2767,-3.2738,-3.2732,-3.2739,-3.2701,-3.2692,-3.269,-3.2681,-3.2657,-3.2656,-3.2657,-3.2755,-3.2635,-3.2636,-3.2637,-3.2825,-3.283,-3.2834,0,0,0,0,0,0,-3.2804,-3.2806,-3.2808,-3.2798,-3.2796,-3.2743,-3.2752,-3.274,-3.2742,-3.2695,-3.2685,-3.2702,-3.2654,-3.2654,-3.2699,-3.2753,-3.2637,-3.2639,-3.282,-3.2826,-3.2832,-3.2953,0,0,0,0,0,0,-3.2804,-3.2806,-3.2837,-3.2799,-3.2797,-3.285,-3.2755,-3.2742,-3.2745,-3.2734,-3.2703,-3.2695,-3.2651,-3.2697,-3.2701,-3.2753,-3.264,-3.2815,-3.2823,-3.283,-3.2944,-3.2963,-3.2978,0,0,0,0,0,-3.2804,-3.2873,-3.2839,-3.2841,-3.2834,-3.2853,-3.2852,-3.2799,-3.275,-3.2781,-3.2751,-3.2696,-3.2746,-3.2703,-3.2706,-3.276,-3.2812,-3.2821,-3.2829,-3.2937,-3.2959,-3.2978,0,0,0,0,0,0,-3.2918,-3.2866,-3.2828,-3.2887,-3.2875,-3.2834,-3.2871,-3.2824,-3.2827,-3.2816,-3.2752,-3.2746,-3.2801,-3.2785,-3.2737,-3.2842,-3.277,-3.278,-3.285,-3.2871,-3.2888,-3.2891,-3.2642,0,0,0,0,0,-3.295,-3.2969,-3.2923,-3.2979,-3.2975,-3.2925,-3.2931,-3.2892,-3.2878,-3.2872,-3.2846,-3.2835,-3.2849,-3.2859,-3.2868,-3.2941,-3.2935,-3.298,-3.2997,-3.3012,-3.3021,-3.3061,-3.3082,-3.2863,-3.2863,-3.2863,0,0,-3.3017,-3.2991,-3.3006,-3.3002,-3.2988,-3.3011,-3.2921,-3.2948,-3.2965,-3.2877,-3.2918,-3.2899,-3.2883,-3.2943,-3.2968,-3.2931,-3.308,-3.3023,-3.3035,-3.3036,-3.3073,-3.3093,-3.3112,-3.2869,-3.2868,-3.2867,0,0,-3.3149,-3.3131,-3.3177,-3.3165,-3.3145,-3.3112,-3.3123,-3.309,-3.3073,-3.3114,-3.3048,-3.3069,-3.3092,-3.3084,-3.3084,-3.3217,-3.3167,-3.3222,-3.3311,-3.3351,-3.3368,-3.3383,-3.3433,-3.3451,-3.3232,-3.3232,-3.3232,0,-3.3235,-3.3264,-3.3206,-3.3238,-3.3239,-3.316,-3.3208,-3.3199,-3.3185,-3.3188,-3.3147,-3.3177,-3.316,-3.3219,-3.3252,-3.3253,-3.3266,-3.3225,-3.337,-3.3385,-3.3398,-3.3445,-3.3463,-3.3239,-3.3238,-3.3238,-3.3237,0,-3.3371,-3.3394,-3.3433,-3.3421,-3.3426,-3.3466,-3.3416,-3.3429,-3.339,-3.3362,-3.3406,-3.3384,-3.3389,-3.34,-3.3362,-3.3454,-3.3432,-3.3382,-3.3308,-3.3427,-3.347,-3.3487,-3.3249,-3.3247,-3.3245,-3.3243,0,0,-3.3573,-3.353,-3.3545,-3.354,-3.3514,-3.3531,-3.3568,-3.3573,-3.3586,-3.3579,-3.3611,-3.3634,-3.3588,-3.3588,-3.3549,-3.3584,-3.3694,-3.3529,-3.3528,-3.3562,-3.3797,-3.3835,-3.3857,-3.366,-3.3663,-3.3666,-3.3798,0,-3.37,-3.3759,-3.371,-3.378,-3.3801,-3.3728,-3.3761,-3.375,-3.3725,-3.3741,-3.3714,-3.3733,-3.3669,-3.3669,-3.37,-3.3674,-3.374,-3.3663,-3.3691,-3.3692,-3.3698,-3.3878,-3.3919,-3.4045,-3.3815,-3.3817,-3.3819,0,-3.3854,-3.3855,-3.3927,-3.3899,-3.3906,-3.3936,-3.3938,-3.3953,-3.3941,-3.392,-3.3921,-3.3874,-3.3911,-3.384,-3.3891,-3.384,-3.3849,-3.3838,-3.3842,-3.3843,-3.3763,-3.3886,-3.4083,-3.4103,-3.3845,-3.3843,-3.3841,0,-3.3996,-3.4015,-3.4061,-3.4059,-3.4027,-3.405,-3.4038,-3.4021,-3.4028,-3.403,-3.4035,-3.4042,-3.4046,-3.4053,-3.401,-3.3961,-3.4069,-3.3992,-3.4055,-3.4056,-3.408,-3.4079,-3.4283,-3.4085,-3.4085,-3.4084,-3.4084,0,-3.4143,-3.4191,-3.4125,-3.4154,-3.4206,-3.4149,-3.4203,-3.4184,-3.417,-3.4195,-3.4133,-3.4158,-3.4099,-3.4119,-3.4086,-3.4135,-3.4137,-3.4123,-3.4114,-3.4129,-3.4132,-3.4135,-3.4125,-3.4089,-3.4088,-3.4087,-3.4086,0,-3.431,-3.4268,-3.4314,-3.428,-3.4273,-3.4313,-3.4285,-3.4311,-3.4283,-3.4316,-3.4321,-3.4278,-3.4298,-3.4256,-3.4271,-3.4249,-3.4319,-3.4295,-3.4323,-3.4317,-3.4382,-3.4377,-3.4595,-3.4622,-3.4406,-3.4408,-3.441,0,-3.4406,-3.4441,-3.4412,-3.4424,-3.4416,-3.4436,-3.4443,-3.439,-3.44,-3.439,-3.4418,-3.4433,-3.4443,-3.448,-3.4451,-3.4463,-3.444,-3.4516,-3.4441,-3.4457,-3.4443,-3.4442,-3.4446,-3.4531,-3.4534,-3.4536,-3.4538,0,-3.4583,-3.4561,-3.4572,-3.4579,-3.4589,-3.4591,-3.4588,-3.4602,-3.4546,-3.4562,-3.4582,-3.4589,-3.4605,-3.4622,-3.4628,-3.4617,-3.457,-3.4562,-3.4577,-3.4593,-3.4609,-3.4603,-3.4366,-3.4557,-3.4555,-3.4554,-3.4552,-3.4552,-3.4718,-3.4747,-3.4731,-3.4748,-3.4741,-3.4741,-3.4764,-3.474,-3.4755,-3.4764,-3.4732,-3.476,-3.475,-3.4752,-3.4747,-3.477,-3.4736,-3.4758,-3.4764,-3.477,-3.4782,-3.4605,-3.4771,-3.477,-3.477,-3.4769,-3.4769,0,-3.4893,-3.488,-3.4895,-3.4894,-3.4908,-3.4861,-3.4857,-3.4872,-3.4897,-3.4891,-3.4902,-3.4927,-3.4944,-3.4918,-3.4931,-3.4954,-3.4933,-3.496,-3.4958,-3.4957,-3.481,-3.4796,-3.4977,-3.4977,-3.4977,-3.4977,-3.4977,-3.4977,-3.4985,-3.5032,-3.5009,-3.5053,-3.5039,-3.5066,-3.5068,-3.5069,-3.5064,-3.5094,-3.5108,-3.509,-3.5077,-3.5089,-3.5104,-3.5096,-3.5104,-3.5139,-3.5124,-3.4987,-3.4967,-3.4947,-3.4934,-3.5141,-3.5141,-3.5269,-3.527,-3.5271]},{"header":{"parameterUnit":"m.s-1","parameterCategory":1,"la1":30.2991,"la2":30.254,"lo1":-89.0895,"lo2":-89.0444,"dy":0.0017,"dx":0.0017,"nx":28,"ny":28,"refTime":"2023-04-23T21:00:00:Z","depth":0,"parameterNumber":3,"parameterNumberName":"V-component_of_WINDS"},"data":[0,0,0,0,0,0,0,0,0,0,0,0,0,0,0,0,0,0,0,0,0,0,0,0,0,0,0,0,0,0,0,0,0,0,0,0,0,0,0,0,0,0,0,0,0,0,0,0,0,0,0,0,0,0,0,0,0,0,1.2542,1.2542,0,1.2498,1.2497,1.2496,1.254,1.2542,1.2543,1.2545,1.2495,1.2492,1.249,0,0,0,0,0,0,0,0,0,0,0,0,0,1.2662,1.266,1.2542,1.2542,1.2541,1.2498,1.2497,1.2496,1.254,1.2542,1.2544,1.2546,1.2496,1.2493,1.2489,0,0,0,0,0,0,0,0,0,0,0,0,0,1.2613,1.2659,1.2542,1.2558,1.2558,1.2498,1.2497,1.2496,1.2539,1.2542,1.2544,1.2547,1.2497,1.2493,1.2489,1.241,0,0,1.2475,1.2473,0,0,0,0,0,0,0,0,1.2616,1.2608,1.2556,1.2556,1.2557,1.2527,1.2521,1.2467,1.2539,1.2546,1.2545,1.2548,1.2503,1.2499,1.2485,1.2407,1.2405,1.2475,1.2472,1.247,1.2469,0,0,0,0,0,0,0,1.2619,1.261,1.2524,1.2555,1.2556,1.2566,1.2562,1.2511,1.2511,1.2546,1.2549,1.2543,1.2504,1.2489,1.2484,1.2404,1.2475,1.2471,1.2468,1.2467,1.226,1.2257,0,0,0,0,0,0,1.2621,1.2613,1.2526,1.2523,1.2594,1.2561,1.2557,1.2534,1.2511,1.2511,1.2541,1.2545,1.2495,1.2489,1.2482,1.2387,1.247,1.2466,1.2464,1.2263,1.2259,1.2256,0,0,0,0,0,0,1.2624,1.2613,1.2528,1.2569,1.2559,1.2557,1.2531,1.2532,1.2516,1.2508,1.2508,1.2525,1.2497,1.2488,1.2428,1.2386,1.2464,1.246,1.2266,1.2261,1.2258,1.2197,0,0,0,0,0,0,1.2627,1.2614,1.2584,1.2568,1.2556,1.2474,1.2528,1.2529,1.2509,1.2514,1.2493,1.2492,1.2498,1.2434,1.2423,1.2381,1.2457,1.227,1.2264,1.2259,1.2202,1.2191,1.2181,0,0,0,0,0,1.2631,1.2568,1.2582,1.2571,1.2519,1.2472,1.2465,1.2475,1.2505,1.2475,1.247,1.2493,1.2393,1.2427,1.2416,1.2372,1.2272,1.2266,1.2259,1.2207,1.2193,1.2181,0,0,0,0,0,0,1.2577,1.2566,1.2582,1.2512,1.2493,1.2479,1.2441,1.246,1.243,1.2436,1.2448,1.2443,1.2379,1.237,1.2408,1.2294,1.2337,1.2328,1.2302,1.2288,1.2278,1.228,1.2453,0,0,0,0,0,1.2557,1.2521,1.2513,1.2451,1.2441,1.2443,1.2422,1.2432,1.2412,1.2403,1.2394,1.2373,1.2337,1.2313,1.2279,1.2202,1.2198,1.2167,1.2156,1.2147,1.2138,1.2097,1.2082,1.2235,1.2235,1.2235,0,0,1.2515,1.2505,1.248,1.244,1.2427,1.2387,1.2436,1.2392,1.2362,1.2396,1.2338,1.2331,1.2308,1.2239,1.2208,1.2229,1.2096,1.2139,1.2132,1.2128,1.2088,1.2074,1.2061,1.2231,1.2231,1.2232,0,0,1.2418,1.2407,1.2355,1.2341,1.232,1.2322,1.231,1.2294,1.2291,1.2233,1.2258,1.2223,1.2161,1.2144,1.2127,1.2025,1.2044,1.2014,1.1957,1.1917,1.1904,1.1894,1.1856,1.1843,1.2006,1.2006,1.2006,0,1.2368,1.2311,1.2325,1.228,1.2261,1.2293,1.2239,1.2225,1.2193,1.2179,1.2204,1.2128,1.2114,1.2041,1.2017,1.2003,1.1988,1.2015,1.1905,1.1895,1.1885,1.1849,1.1835,1.2002,1.2003,1.2003,1.2003,0,1.225,1.221,1.217,1.214,1.2117,1.2068,1.2074,1.2049,1.2062,1.2061,1.2001,1.1988,1.1952,1.1936,1.1946,1.1864,1.1878,1.1904,1.1947,1.1867,1.1833,1.1819,1.1997,1.1998,1.1999,1.2,0,0,1.2114,1.2096,1.208,1.2067,1.2048,1.2017,1.1969,1.1936,1.1913,1.1892,1.1851,1.1799,1.1823,1.1804,1.1813,1.1778,1.1697,1.1808,1.1808,1.1786,1.1604,1.1582,1.1566,1.1711,1.1708,1.1706,1.1605,0,1.2015,1.1934,1.1946,1.1867,1.1829,1.186,1.1818,1.1801,1.18,1.1767,1.1765,1.1727,1.1764,1.1752,1.1719,1.1714,1.166,1.1722,1.1671,1.1669,1.1673,1.1549,1.1526,1.1431,1.1592,1.159,1.1589,0,1.1888,1.1863,1.178,1.1767,1.1752,1.1715,1.1685,1.1654,1.1636,1.1637,1.1617,1.1633,1.1584,1.1631,1.1564,1.1605,1.1586,1.1581,1.1577,1.1571,1.1622,1.1537,1.1401,1.1386,1.1568,1.157,1.1571,0,1.1796,1.1742,1.1685,1.1673,1.1657,1.163,1.1622,1.1606,1.1585,1.1559,1.1546,1.1514,1.1496,1.1471,1.1478,1.1512,1.1409,1.1456,1.1407,1.1407,1.1381,1.1382,1.1238,1.1373,1.1373,1.1373,1.1374,0,1.1683,1.163,1.1643,1.1608,1.155,1.1566,1.1507,1.1503,1.1489,1.1453,1.1478,1.1443,1.1456,1.1422,1.1427,1.137,1.1362,1.136,1.1362,1.1357,1.1356,1.1342,1.1348,1.137,1.137,1.1371,1.1372,0,1.1568,1.1575,1.1515,1.1506,1.1502,1.146,1.1451,1.1417,1.1419,1.1373,1.1363,1.1364,1.1326,1.1331,1.1288,1.1291,1.1219,1.123,1.1225,1.1227,1.1177,1.1181,1.1016,1.0995,1.1145,1.1144,1.1143,0,1.1494,1.1455,1.1442,1.142,1.141,1.1375,1.1354,1.1368,1.1346,1.1323,1.1291,1.1256,1.1227,1.1163,1.116,1.1127,1.1135,1.108,1.113,1.1126,1.1132,1.1133,1.1129,1.1069,1.1068,1.1066,1.1065,0,1.1362,1.1368,1.1338,1.1309,1.1284,1.1262,1.1242,1.1222,1.1235,1.1208,1.1169,1.1147,1.1104,1.1067,1.1036,1.1027,1.1047,1.105,1.1036,1.1029,1.1027,1.1026,1.1196,1.1053,1.1054,1.1055,1.1056,1.1056,1.1264,1.123,1.1216,1.1182,1.1169,1.115,1.1118,1.1117,1.1085,1.1051,1.1062,1.1018,1.1001,1.0962,1.0949,1.0914,1.0935,1.0915,1.091,1.0904,1.0898,1.1035,1.0909,1.091,1.091,1.091,1.091,0,1.1131,1.1124,1.1093,1.1065,1.1038,1.1062,1.1042,1.1017,1.0978,1.0962,1.0934,1.0889,1.0854,1.0849,1.0815,1.0788,1.0797,1.0779,1.078,1.0777,1.0882,1.0897,1.0773,1.0773,1.0773,1.0773,1.0773,1.0773,1.1058,1.1003,1.1007,1.0945,1.0938,1.0896,1.0882,1.0864,1.0851,1.0801,1.0772,1.077,1.0758,1.0724,1.0693,1.0692,1.0677,1.0655,1.0658,1.0756,1.077,1.0783,1.0796,1.0653,1.0653,1.0555,1.0554,1.0554]}]]